Theta_e
332 341 348 352 351 354 353 358 360 359 360 345 345 351 354 359 357 358 355 354 353 350 348 347 346 346 346 344 346 347 344 348 349 341 341 350 351 353 352 349 351 352 354 353 351 349 349 347 345 346 344 347 349 350 351 351 351 350 350 350 352 352 352 350 350 350 349 349 351 353 353 353 351 352 353 353 353 353 353 353 354 355 354 352 351 351 351 352 351 349 349 350 351 353 352 352 353
344 348 351 352 352 357 357 361 358 352 353 343 346 352 353 359 355 355 356 354 353 347 345 346 346 345 344 343 341 344 347 346 348 347 347 350 351 353 351 350 351 352 353 352 351 352 352 345 342 346 348 350 351 351 351 351 351 350 348 348 349 350 352 351 350 349 349 349 351 352 352 353 352 352 353 351 351 353 353 353 354 354 354 352 350 349 348 350 350 348 348 350 352 353 352 352 352
351 350 351 353 355 358 360 362 356 349 348 340 343 357 357 357 355 356 354 351 349 345 346 345 344 345 341 341 342 344 347 344 344 346 347 352 353 352 351 352 351 352 352 351 351 352 352 344 343 349 350 351 351 351 351 350 351 350 349 349 347 347 349 351 351 350 349 349 349 351 352 353 351 352 352 350 349 351 353 353 354 353 353 353 349 346 346 348 348 347 348 352 353 353 352 351 349
351 352 352 355 359 360 362 363 363 357 347 337 340 357 359 356 356 355 352 349 346 346 346 344 346 346 343 342 343 344 345 344 345 346 348 352 353 352 352 352 352 352 352 351 351 351 348 342 345 350 351 351 351 351 351 351 351 351 352 351 349 348 349 350 351 351 350 349 349 351 352 352 352 352 351 349 350 351 352 353 353 352 353 352 347 342 344 347 348 348 350 352 353 353 351 350 350
351 355 352 357 362 362 364 364 368 359 347 342 344 356 361 356 357 352 349 347 345 347 345 344 347 346 346 344 343 344 344 342 344 346 349 351 353 352 353 352 352 353 352 352 352 350 346 343 348 350 350 350 349 350 350 351 351 352 352 352 352 351 351 351 351 350 348 349 350 351 351 351 351 350 348 348 351 351 351 352 353 352 352 352 348 342 342 347 350 350 351 352 351 352 351 350 351
353 355 353 358 360 360 361 357 358 354 355 358 352 358 360 356 356 350 346 347 347 349 346 346 347 345 348 346 344 344 342 341 343 347 350 352 352 353 353 353 353 353 352 350 349 349 347 346 349 350 350 349 348 349 350 351 351 351 351 352 352 351 352 352 351 348 348 349 350 350 350 350 350 348 347 349 349 350 350 351 352 352 351 351 349 346 346 350 352 351 350 350 349 351 351 350 351
355 356 357 360 360 361 362 355 353 353 361 366 359 360 359 355 353 349 347 347 349 350 347 347 345 345 348 347 346 345 343 342 345 348 350 351 352 353 352 352 352 352 351 349 348 350 348 347 350 350 350 349 349 350 351 351 351 352 351 352 351 351 351 350 350 348 348 349 350 350 350 350 351 348 347 349 348 349 351 351 351 352 351 350 348 347 349 352 351 351 350 348 349 351 350 349 349
355 356 358 362 365 364 361 358 356 357 362 364 361 360 358 356 352 349 349 349 352 352 349 347 344 347 348 346 346 345 343 344 347 349 350 351 352 352 351 350 349 350 351 349 350 351 348 348 350 350 351 351 351 350 351 352 352 352 351 351 351 350 351 350 349 348 348 350 350 349 350 351 351 350 349 350 350 351 352 351 350 350 350 349 348 346 349 352 351 351 350 348 347 347 346 345 345
356 357 358 362 366 361 357 358 360 362 364 363 361 360 358 355 352 351 351 351 353 351 350 346 345 351 351 347 346 346 345 347 348 349 350 351 351 351 351 348 347 349 349 348 350 352 350 349 349 349 351 351 350 350 351 352 352 351 351 351 351 350 351 350 349 348 349 350 349 349 349 349 350 350 349 349 349 351 351 350 349 349 349 348 347 346 349 352 352 352 351 348 345 343 343 342 342
356 359 360 362 363 356 352 354 359 363 367 365 362 360 357 356 353 352 352 353 352 351 350 347 348 352 350 347 347 346 347 348 347 348 349 350 351 351 349 347 347 347 347 347 350 353 353 350 349 349 350 350 350 350 351 351 351 350 350 350 350 350 350 350 350 350 350 349 349 350 349 348 349 350 350 348 348 351 351 350 349 349 348 348 347 346 349 351 352 352 351 349 346 345 344 342 341
358 358 359 360 357 352 349 352 359 364 366 364 362 361 358 357 354 354 353 354 354 351 350 349 351 351 350 348 346 347 348 348 347 348 349 350 351 351 349 346 346 345 347 349 351 353 353 351 349 350 350 350 350 351 351 350 349 349 349 350 349 348 350 350 349 350 351 349 349 351 350 349 349 350 350 349 349 351 351 349 348 348 348 348 347 349 351 352 352 351 350 348 347 346 344 342 341
359 363 366 359 355 356 354 354 359 364 367 364 363 363 360 358 356 355 355 355 354 352 351 352 352 350 352 350 347 347 347 347 347 349 349 349 351 350 348 346 346 345 346 349 351 352 353 351 350 350 350 349 351 352 351 349 347 347 348 348 348 348 350 349 347 350 350 349 349 351 351 350 349 351 350 350 351 351 351 349 348 349 349 349 349 351 352 352 351 351 350 348 348 347 341 339 339
359 367 367 360 359 360 360 359 360 363 366 366 363 363 360 361 359 355 355 355 354 353 354 350 349 348 351 349 346 346 346 348 348 348 349 349 349 348 347 346 345 345 348 349 350 351 353 353 351 352 350 349 352 351 350 348 347 347 348 348 348 348 349 348 348 350 350 349 350 351 351 350 350 350 350 350 351 351 350 349 349 350 350 350 351 351 351 352 351 349 349 346 347 345 339 338 337
358 364 363 363 363 362 363 362 359 360 364 366 362 362 360 361 360 354 354 356 355 354 353 348 346 348 350 348 346 344 345 348 348 348 348 348 348 347 345 345 345 345 349 351 350 350 353 354 353 353 352 352 352 350 350 349 348 349 349 350 350 348 349 350 349 349 349 349 350 350 350 350 350 350 350 349 350 350 350 349 350 351 350 351 351 351 351 351 350 348 347 344 344 343 340 340 339
354 358 361 366 362 356 360 362 360 358 360 364 362 361 361 360 359 356 355 358 357 351 350 349 347 349 348 346 345 345 347 349 348 348 348 348 347 346 345 346 346 345 349 351 350 350 351 353 354 355 355 354 351 350 350 350 349 350 350 350 350 349 349 350 349 349 349 349 350 350 349 349 349 349 349 348 348 350 350 350 351 351 351 351 351 351 350 348 348 347 346 345 345 344 343 342 341
352 355 361 364 357 351 356 363 361 357 359 364 361 360 363 361 358 359 358 357 356 351 350 349 347 349 345 342 345 346 348 348 347 348 348 348 347 346 346 346 345 345 350 350 349 350 350 350 353 356 355 353 352 350 350 350 350 350 350 350 349 348 349 349 349 349 349 349 350 350 350 349 350 350 349 348 349 350 350 351 351 351 351 352 351 350 349 348 348 347 347 346 346 345 343 341 340
351 356 364 359 355 354 357 365 361 357 361 365 362 361 364 361 358 359 357 357 354 351 351 348 346 347 342 342 346 348 348 348 348 349 348 349 347 347 347 347 345 345 350 352 350 351 350 349 350 354 355 352 351 350 350 350 350 350 350 350 349 347 349 349 349 349 349 350 350 350 350 349 350 349 349 349 350 350 351 352 352 351 351 351 350 350 349 348 349 348 347 346 346 345 344 341 339
353 361 365 355 355 357 359 364 362 361 364 363 362 362 362 361 361 360 358 358 354 353 350 346 345 344 343 345 347 348 348 348 349 348 348 348 347 347 347 347 345 345 350 352 350 350 352 352 350 353 354 353 352 351 351 350 349 349 349 350 349 347 349 349 349 349 349 350 350 350 349 349 349 349 349 350 350 350 351 351 351 351 351 350 349 349 349 348 347 347 346 348 349 350 350 348 346
353 359 364 357 357 359 359 362 361 361 363 362 362 361 360 362 361 360 361 360 355 354 351 346 346 344 345 346 347 347 347 348 349 348 348 348 347 347 347 347 344 344 350 353 351 351 352 353 352 352 352 352 353 350 350 351 350 348 347 349 348 347 349 349 348 349 350 350 350 349 350 349 347 348 349 350 350 350 351 350 350 351 350 349 348 348 348 347 346 347 348 350 351 352 354 354 352
352 355 360 358 356 359 359 360 360 360 362 361 362 361 361 360 359 359 361 360 357 355 351 348 348 346 345 345 346 346 346 347 348 347 346 346 346 346 346 347 344 343 349 353 352 351 352 353 353 353 352 352 353 351 350 350 350 348 348 349 348 346 348 350 349 350 350 349 350 350 350 349 347 349 349 349 350 350 351 350 350 349 348 348 347 347 347 347 347 348 349 350 352 353 355 352 351
352 353 355 354 352 360 361 360 359 358 361 362 361 361 361 359 357 359 361 360 359 356 351 349 347 346 344 343 345 346 347 348 347 346 345 345 345 345 346 346 344 344 349 354 353 352 353 354 355 355 354 353 352 351 351 350 350 350 349 349 350 348 348 350 349 350 350 349 351 351 350 350 348 349 349 349 351 351 352 351 350 350 350 349 349 350 348 349 351 352 351 351 353 353 353 351 349
351 352 351 349 351 361 362 359 358 357 361 363 362 362 361 359 358 357 359 361 361 355 350 347 344 344 342 342 344 346 347 347 346 345 344 344 344 344 345 344 343 344 349 354 354 353 353 354 356 356 354 353 351 350 351 351 350 350 350 349 349 349 348 348 347 348 349 349 352 352 351 352 349 348 349 351 352 351 352 352 353 353 352 351 351 351 350 352 354 354 354 353 352 349 349 349 347
352 352 347 344 351 362 361 358 356 356 361 362 362 362 360 359 359 356 358 359 357 353 347 345 344 342 343 343 344 344 345 345 345 345 343 344 344 343 343 343 344 343 347 353 352 351 353 354 356 356 354 354 353 351 352 352 349 349 351 350 349 350 349 348 347 348 349 350 351 351 350 352 351 350 351 352 352 350 351 352 352 351 351 351 352 351 352 353 353 353 354 352 349 346 345 346 345
350 351 343 347 355 362 360 356 356 358 361 361 361 361 359 360 360 358 360 357 353 350 345 344 345 344 343 343 343 343 344 345 344 344 343 343 343 342 343 343 343 344 347 351 351 349 351 355 356 356 356 354 354 353 352 351 348 347 351 351 350 350 350 349 349 349 351 351 350 350 349 349 350 352 352 353 351 349 349 351 350 350 350 351 352 352 352 353 352 352 351 349 348 346 345 345 344
349 346 341 355 359 360 356 354 355 359 361 362 362 360 359 360 359 360 360 355 351 348 345 344 343 343 343 342 342 343 343 344 345 344 344 343 343 342 342 342 343 345 348 350 351 349 350 354 356 356 356 355 353 353 352 351 348 348 351 352 350 349 350 351 351 350 351 351 351 351 350 349 349 349 350 350 350 349 349 350 350 349 350 350 351 352 352 352 351 350 349 348 347 346 345 345 344
346 339 344 359 360 358 355 357 358 360 361 361 363 362 360 359 358 360 359 353 349 347 346 344 343 342 342 341 341 342 342 343 345 344 344 343 343 342 341 342 343 345 348 350 351 350 350 352 355 355 356 355 353 354 353 350 350 351 353 353 352 348 348 351 352 350 351 351 351 351 350 351 349 348 348 348 349 349 349 350 350 349 348 349 350 351 352 352 350 349 348 347 347 346 344 344 344
339 337 350 359 361 360 357 360 360 360 361 361 363 362 360 359 359 361 358 353 349 347 346 343 344 343 342 341 341 343 342 342 344 344 345 344 343 341 340 341 343 346 348 350 351 350 350 351 354 355 355 355 354 354 353 351 351 352 353 353 353 352 350 350 351 350 350 351 349 349 349 347 346 346 347 348 349 351 351 351 351 350 349 350 350 351 351 351 351 350 350 348 347 345 343 344 343
335 342 357 358 360 361 361 362 362 361 362 361 361 363 361 359 359 362 358 352 350 349 348 345 345 343 342 342 340 344 343 342 344 344 345 344 342 341 340 342 344 346 348 350 351 350 350 351 352 354 354 355 353 353 352 351 352 352 352 353 353 353 352 350 349 348 348 349 349 348 347 346 345 348 349 350 351 351 351 351 352 351 351 351 351 351 351 350 351 351 352 353 351 347 343 342 342
333 346 361 361 362 361 359 361 361 361 362 360 360 361 362 362 361 362 356 350 352 351 349 346 345 343 343 343 341 342 343 343 345 344 345 343 342 340 339 342 344 346 348 350 350 350 350 350 352 353 353 354 353 352 351 350 351 351 352 353 354 353 351 348 347 346 348 349 351 350 349 349 351 352 353 353 352 352 352 352 352 352 352 352 352 352 352 350 350 350 350 354 353 349 346 344 344
332 344 359 360 359 360 361 359 360 362 362 362 359 354 357 363 361 360 355 351 354 352 349 348 346 344 343 344 342 342 343 344 344 345 345 344 342 340 340 342 344 346 349 349 349 351 350 349 351 352 352 353 353 352 352 351 351 351 350 352 353 351 349 348 346 348 349 350 352 353 354 355 355 356 356 354 352 352 352 353 353 353 353 352 353 352 351 351 352 351 349 351 351 350 348 346 346
335 341 353 355 346 351 363 358 360 365 361 363 361 352 355 363 360 359 356 353 356 352 349 347 346 345 344 344 343 342 344 344 344 344 345 344 343 340 340 342 345 347 348 348 350 351 350 350 351 351 352 352 353 353 352 352 351 351 350 351 352 350 348 347 347 349 350 350 352 354 355 356 356 356 356 354 353 352 352 353 354 354 354 353 354 353 351 352 352 352 350 351 351 350 350 347 347
338 335 340 352 343 350 367 359 361 365 359 363 360 353 357 363 360 358 357 356 356 353 349 347 346 346 344 345 343 342 343 343 344 345 344 344 343 342 341 342 345 347 349 349 350 351 350 351 351 351 352 352 352 354 353 353 352 351 351 351 352 350 348 348 349 349 349 351 352 354 355 356 356 356 357 357 354 352 352 353 354 356 357 355 355 355 352 351 351 352 352 352 351 350 351 348 347
339 333 332 343 342 349 362 358 361 361 357 362 358 356 361 363 360 358 357 357 357 355 352 347 346 347 346 344 343 343 344 343 344 345 345 344 342 342 340 342 346 348 349 350 350 350 350 351 350 350 352 352 353 354 354 354 353 352 351 350 351 350 349 349 349 350 351 352 352 354 357 357 358 358 360 361 355 352 353 353 355 357 357 355 354 354 352 351 352 353 354 354 354 352 351 349 347
331 334 333 340 343 345 351 358 362 358 359 362 358 360 364 362 361 360 359 358 357 356 354 349 347 347 347 345 343 344 344 343 344 345 344 343 341 341 340 342 347 349 349 350 351 351 350 350 351 351 352 352 353 354 355 354 353 352 351 350 351 350 349 350 350 351 351 352 354 355 358 358 358 359 361 362 357 352 354 354 356 358 357 356 356 354 353 353 354 354 354 355 356 354 352 349 347
327 330 329 337 347 344 347 357 360 359 360 360 357 359 364 363 361 360 359 358 356 356 354 350 348 348 348 346 344 345 345 343 345 346 344 343 340 340 340 343 348 350 349 349 351 352 350 350 353 352 352 353 353 354 354 354 354 353 351 351 353 351 350 350 350 351 351 352 355 356 358 358 358 359 360 362 359 354 354 355 357 358 357 358 358 354 353 354 355 356 356 356 357 356 351 347 345
333 335 330 338 345 342 349 357 357 360 359 358 358 357 364 366 363 360 359 359 360 359 357 352 349 349 349 347 346 347 346 343 345 346 344 342 341 340 340 342 347 350 350 350 351 353 353 353 354 352 353 354 353 354 354 354 354 353 351 351 353 353 352 352 351 352 351 352 354 356 358 359 358 360 360 362 361 357 357 356 358 358 357 357 357 354 354 355 357 358 357 357 358 356 350 345 345
337 337 335 343 344 339 351 359 355 358 357 358 358 355 362 367 365 363 360 361 362 358 359 355 352 351 350 348 347 349 347 344 346 346 344 343 342 342 340 342 347 350 352 352 351 354 355 354 354 353 354 353 353 354 353 353 353 353 353 351 352 353 353 352 353 352 352 353 355 356 357 358 358 360 360 362 361 359 359 358 359 360 357 358 359 358 356 355 356 358 358 358 356 353 349 344 344
335 336 339 343 342 342 355 359 354 358 359 358 359 356 359 364 364 364 362 360 361 361 361 357 353 351 352 351 349 351 347 346 347 345 345 344 343 343 343 344 347 351 353 353 352 353 355 355 355 354 354 353 353 354 355 355 354 354 353 351 352 353 353 353 352 352 352 355 357 357 358 358 358 360 361 361 359 358 359 359 359 361 360 358 359 358 357 356 357 358 358 358 354 348 347 345 346
333 335 338 338 341 346 352 356 357 356 355 356 359 358 357 360 362 361 361 359 358 362 363 359 355 353 353 353 352 351 348 348 347 345 345 345 344 345 346 348 349 352 354 353 353 353 354 356 356 356 355 354 354 355 356 356 355 355 354 352 352 352 353 353 353 353 353 355 357 358 359 359 359 359 360 359 358 358 359 359 357 359 361 359 359 359 357 358 359 359 358 357 354 349 345 345 348
331 329 331 334 342 342 338 345 358 357 352 353 356 357 358 361 362 360 360 359 358 361 362 361 360 358 355 353 353 352 350 350 348 345 345 346 346 346 348 349 350 353 354 352 354 354 354 356 358 358 357 356 357 357 356 357 358 359 358 355 354 354 353 354 355 354 354 354 356 357 359 359 358 358 358 358 357 358 359 359 358 358 360 360 360 359 359 358 358 358 357 357 356 351 345 345 347
328 328 328 334 343 340 336 344 357 356 350 355 355 352 359 361 361 364 360 358 360 360 362 363 359 357 357 355 353 353 351 351 350 346 346 348 347 348 349 350 350 352 353 353 353 353 353 355 358 359 359 358 358 358 358 359 359 360 360 358 357 356 356 356 356 356 355 355 355 356 357 358 358 358 358 358 357 358 358 359 360 359 359 360 359 358 358 358 357 357 356 357 356 352 347 346 346
322 328 328 334 340 339 343 352 354 344 340 352 352 343 351 359 357 363 362 358 360 358 360 362 359 358 357 358 355 354 353 351 350 347 346 349 348 349 350 349 350 351 352 352 352 352 353 355 358 359 359 358 359 359 361 360 358 360 361 359 357 356 356 356 355 355 356 355 354 355 356 357 358 358 358 358 358 358 359 359 359 359 358 358 358 358 357 356 357 356 356 357 356 354 350 347 346
316 325 329 332 338 338 347 353 345 332 331 348 347 337 342 353 355 360 362 360 361 359 360 359 360 361 359 359 356 354 354 350 349 348 346 349 349 351 352 350 350 349 351 352 350 351 353 356 358 358 357 358 359 360 361 360 359 361 361 358 356 355 356 356 355 354 354 354 353 355 356 356 358 358 357 359 358 358 359 359 359 359 358 357 357 357 356 355 356 357 357 358 357 357 354 350 348
318 327 329 331 334 336 343 345 337 331 333 348 350 335 334 340 351 360 360 360 360 360 361 359 359 362 360 359 356 354 354 350 350 348 346 349 352 353 353 351 349 348 350 351 351 350 353 357 358 358 357 357 359 359 360 360 361 363 361 357 355 354 354 356 357 355 354 354 355 355 356 356 357 357 357 358 358 358 358 358 359 359 358 357 356 356 356 356 356 357 358 357 357 358 357 354 353
324 329 329 328 331 334 338 336 331 330 331 332 338 336 329 330 349 364 360 358 360 361 361 359 359 360 360 360 356 354 353 351 350 347 347 350 352 352 352 352 350 348 349 350 351 351 352 356 359 358 357 357 359 360 360 360 361 362 362 358 354 352 354 356 355 354 356 356 358 358 357 356 356 357 358 358 358 358 358 358 359 359 359 358 356 355 356 357 358 358 357 357 358 359 357 356 355
327 328 328 328 328 331 335 333 326 324 326 323 326 332 328 325 344 360 360 356 360 363 360 358 358 358 358 358 356 355 354 353 350 348 349 350 351 352 351 352 349 347 349 349 350 352 353 358 359 359 359 358 360 361 360 360 360 361 361 358 355 353 353 355 355 357 359 360 360 361 360 359 356 355 356 357 357 358 358 358 358 358 358 357 356 357 358 357 358 358 357 359 360 359 357 356 355
329 328 327 327 328 329 332 329 324 321 322 322 322 328 328 323 333 354 360 357 358 361 359 358 359 359 357 357 357 356 354 353 350 348 350 350 349 351 349 350 349 347 350 348 349 353 355 358 359 359 359 359 361 361 360 360 359 359 360 358 357 358 358 358 358 359 363 363 361 360 360 359 357 355 354 355 356 357 357 358 358 357 357 357 357 358 358 357 356 355 356 358 359 359 358 357 355
329 329 326 321 321 322 322 321 322 321 321 322 322 325 327 321 324 341 360 359 356 359 359 359 360 361 359 357 356 355 353 352 351 348 349 350 350 351 350 349 349 348 350 349 347 351 355 358 359 359 358 359 361 361 360 360 359 359 361 359 357 360 361 359 356 358 363 363 359 359 360 359 357 356 354 354 354 354 356 357 358 358 358 358 357 357 357 357 357 356 357 357 358 359 359 357 356
329 327 321 316 314 317 319 318 320 320 319 321 323 325 323 322 330 345 357 357 354 358 357 356 359 359 359 357 356 357 354 349 351 349 348 349 350 351 350 349 351 350 351 350 347 348 352 356 358 359 358 358 359 361 361 360 360 360 362 362 360 358 359 360 361 361 362 361 357 358 359 358 357 357 355 354 353 353 354 356 357 358 359 359 358 358 359 358 358 358 358 356 358 358 358 357 356
326 322 318 315 313 316 319 319 318 317 317 318 324 328 320 322 340 354 354 353 353 356 355 353 355 356 357 357 356 358 357 350 350 351 348 349 350 350 350 350 351 352 351 351 348 347 350 353 356 357 357 358 358 359 360 359 360 361 361 363 362 358 358 362 362 360 359 359 358 358 356 355 356 356 355 354 353 353 353 355 356 357 359 360 359 360 359 359 358 359 359 357 357 358 358 358 357
325 326 324 317 313 316 318 317 316 316 315 315 322 327 319 322 343 355 349 351 353 354 356 354 353 355 357 356 356 356 357 355 353 351 349 350 351 350 350 351 351 353 353 351 349 350 350 352 355 355 356 358 358 359 359 359 360 361 361 362 362 359 359 360 359 359 359 358 358 357 356 355 354 355 356 355 354 355 354 355 356 356 358 360 360 360 359 359 358 359 360 358 358 359 359 358 358
323 326 323 317 316 318 316 315 315 315 314 315 319 323 326 335 350 355 351 352 350 351 357 355 353 355 355 354 355 355 355 355 356 354 352 351 352 350 350 351 352 354 354 352 351 351 351 352 354 355 356 357 358 359 359 358 359 360 360 361 362 361 360 359 360 361 360 358 357 357 358 358 356 355 357 357 356 356 355 356 357 356 358 359 360 361 360 360 361 360 360 360 358 359 360 359 358
320 319 316 320 326 322 315 314 317 316 316 318 316 320 331 341 346 352 353 354 352 350 354 355 353 355 355 354 353 353 354 354 356 357 354 352 352 352 352 351 352 354 353 353 354 353 352 353 354 355 355 355 356 358 358 358 359 359 359 359 360 361 360 358 358 359 358 358 359 358 356 357 357 356 357 357 357 357 356 357 357 356 358 358 360 361 360 363 366 362 361 362 359 358 362 362 359
319 315 316 323 326 324 319 315 316 317 319 319 316 318 325 327 332 346 353 354 354 351 354 357 355 354 355 354 354 355 355 354 355 358 359 356 352 352 352 352 352 350 350 352 355 354 354 355 355 354 355 354 355 356 357 357 359 359 358 359 358 358 358 357 356 356 355 356 358 358 356 357 358 357 356 356 357 358 358 358 358 358 359 359 360 361 360 363 366 362 361 363 360 360 365 364 361
321 319 322 321 316 315 317 314 314 317 319 318 317 316 318 320 329 343 349 352 356 354 357 360 358 355 355 355 355 357 356 355 356 359 362 362 357 355 353 352 352 350 349 351 354 355 356 356 357 357 355 353 352 353 354 356 358 357 357 357 357 357 356 356 356 355 355 355 356 356 355 356 357 356 357 358 358 358 358 359 358 359 360 361 361 360 361 363 364 360 359 361 360 361 363 362 361
322 322 324 321 316 314 315 315 315 316 317 318 317 315 319 330 343 350 349 352 357 355 357 361 359 357 356 356 357 357 356 356 355 357 361 364 361 360 357 354 352 351 351 354 354 356 357 358 359 360 359 354 352 352 353 354 356 356 356 356 356 356 356 355 355 356 356 355 355 355 354 355 355 355 357 358 357 358 358 358 357 356 358 359 359 359 360 363 362 360 358 358 358 360 362 361 361
318 317 317 318 318 317 317 316 315 316 315 317 317 317 326 344 359 359 355 356 358 356 358 360 357 356 356 357 357 357 356 356 355 355 358 361 358 357 359 359 356 352 351 355 356 357 358 358 360 361 361 357 354 353 353 353 353 353 354 354 355 355 355 354 354 354 355 355 356 355 354 354 354 354 356 357 356 357 358 358 357 356 356 357 359 359 358 359 361 361 360 359 358 359 361 361 361
319 316 316 318 316 314 314 313 314 314 313 314 315 317 329 348 357 358 358 357 357 356 357 356 355 356 355 355 355 356 356 355 354 352 353 355 355 355 357 357 356 355 355 356 357 358 358 357 357 359 360 358 355 353 353 353 353 353 353 353 353 353 353 353 353 353 353 353 355 355 354 354 354 354 356 357 357 357 357 357 357 356 357 358 360 360 356 356 360 362 361 360 358 358 359 359 361
Wind_Speed
9 10 9 8 7 5 6 4 1 2 3 0 4 4 6 10 12 13 14 14 10 9 9 10 10 4 4 9 11 12 14 9 6 4 7 12 19 17 17 19 17 16 14 14 13 13 13 12 12 10 8 8 8 8 9 10 11 10 10 10 10 10 10 10 10 10 9 10 12 12 12 12 13 14 13 13 14 14 13 13 13 15 16 16 16 15 14 14 14 14 15 15 15 14 14 15 15
10 11 9 7 6 4 2 2 2 1 2 3 5 5 9 11 12 14 13 12 10 12 12 10 8 5 7 11 10 12 14 13 14 11 12 21 21 16 18 18 17 16 15 14 14 13 11 11 11 9 8 8 8 8 9 9 10 10 10 9 9 9 9 9 9 10 9 10 12 12 12 12 13 13 12 12 13 14 13 12 11 13 16 16 16 16 15 14 14 14 14 14 14 14 14 15 15
10 8 8 6 5 2 1 2 2 1 2 5 6 7 9 11 13 13 12 13 14 16 13 10 8 3 7 12 8 11 11 12 18 15 14 21 18 16 19 16 16 16 15 15 15 14 11 11 11 9 8 8 8 8 9 8 9 9 9 9 9 9 9 9 8 9 10 10 12 12 12 12 13 13 13 12 13 14 13 12 11 12 14 15 16 15 15 15 15 14 13 13 13 14 15 15 15
9 7 7 5 2 1 1 2 2 2 2 5 6 8 10 12 14 13 13 16 17 15 11 11 8 3 4 12 10 11 12 12 17 16 13 17 17 19 20 17 17 15 14 13 13 13 12 12 11 9 8 8 8 8 8 7 8 9 9 9 9 9 9 9 7 8 10 11 12 12 13 12 13 14 13 13 14 13 12 12 12 13 13 15 16 16 16 15 14 13 12 12 13 14 16 16 15
10 8 6 4 1 1 2 2 1 1 2 5 7 10 12 14 14 14 15 17 15 13 11 10 9 7 9 11 8 8 12 13 16 16 15 19 21 21 19 17 17 15 14 14 13 13 13 12 11 9 8 8 8 7 7 7 8 8 8 9 9 9 9 9 7 7 9 11 11 11 12 13 13 13 13 15 16 14 14 13 13 13 13 15 16 16 15 14 13 12 13 14 15 15 15 15 15
10 6 6 6 2 2 3 2 2 3 2 2 8 11 13 14 14 16 17 16 14 11 11 11 10 12 11 11 10 8 11 13 14 15 18 22 22 21 19 17 16 15 15 15 14 14 14 12 11 10 8 8 7 7 7 7 7 8 8 8 8 8 8 8 7 8 9 11 11 11 12 13 12 12 13 15 16 15 15 15 14 14 14 16 16 16 13 11 11 12 14 15 15 15 15 15 14
6 3 3 4 3 2 3 2 1 4 4 3 9 13 14 15 14 16 17 16 13 9 8 11 12 12 10 9 10 10 13 15 14 16 20 23 22 20 18 16 16 15 14 14 14 14 13 12 11 10 9 8 7 7 7 7 8 8 9 8 8 8 8 8 8 9 10 12 12 12 13 13 12 12 13 15 15 15 15 15 14 14 15 16 17 17 13 10 11 12 13 14 14 13 14 14 13
6 3 2 1 2 2 2 0 2 4 8 8 10 13 15 15 14 15 16 13 11 9 9 12 12 11 12 11 10 11 16 16 17 21 23 23 21 19 16 16 17 15 14 14 14 14 13 12 11 10 9 7 7 7 7 8 8 8 8 8 8 8 8 8 8 9 11 12 12 13 13 13 13 12 12 13 14 14 15 15 15 15 16 17 17 18 14 9 10 11 13 14 13 13 13 13 13
6 3 2 1 3 3 1 3 5 5 9 11 11 13 14 14 14 15 15 13 11 10 12 13 11 11 13 14 12 10 14 18 21 23 22 21 20 17 16 16 16 15 15 14 14 14 12 11 10 9 9 7 6 7 7 8 8 8 7 8 9 9 9 8 9 9 10 12 12 14 13 14 14 13 12 13 15 15 15 16 17 16 17 18 18 18 14 9 10 11 13 13 13 13 13 13 13
4 2 3 3 2 3 1 3 5 7 9 9 11 12 13 13 14 14 14 14 12 11 13 12 12 14 14 14 12 10 15 20 23 21 20 20 18 16 16 15 15 15 14 15 15 14 12 10 10 9 8 7 6 7 8 8 7 7 8 8 9 9 9 8 9 10 10 12 14 14 13 14 15 14 13 14 16 15 16 17 17 17 17 18 18 18 14 9 10 11 12 13 13 13 12 12 13
3 2 4 4 2 1 2 4 5 7 9 8 11 11 10 12 13 13 13 13 11 11 12 10 13 15 15 13 9 12 18 21 21 21 20 18 16 16 16 15 14 14 15 16 15 14 12 10 10 9 8 8 8 8 9 9 8 7 8 9 9 9 9 8 9 11 11 12 14 14 13 14 15 16 15 14 15 15 15 17 17 18 18 18 17 16 13 10 10 11 12 13 13 13 12 13 12
4 3 2 3 3 1 2 6 7 8 9 8 11 9 8 11 12 13 14 13 12 12 10 9 12 13 14 12 9 15 20 19 20 20 19 17 16 16 15 15 14 13 16 16 15 14 12 10 11 10 9 9 10 11 11 10 9 9 10 11 10 9 9 9 10 11 11 12 14 14 15 14 15 16 16 14 14 15 15 17 18 19 18 17 16 14 12 11 11 12 12 13 13 12 12 13 12
4 4 1 1 2 2 2 5 7 8 8 5 8 8 8 10 11 13 13 13 12 12 10 10 13 12 12 11 10 15 18 19 19 19 18 17 15 15 15 15 13 13 14 14 15 15 13 12 12 11 10 11 13 13 13 10 9 11 13 12 11 10 10 10 11 12 12 13 14 15 15 15 16 16 16 15 14 15 16 17 18 18 18 17 16 14 13 11 11 11 12 13 13 12 13 14 13
3 3 3 3 2 4 4 4 6 7 6 4 5 7 8 7 9 12 12 13 12 10 9 10 13 13 12 11 11 11 16 20 20 18 17 16 15 15 15 14 13 13 12 13 15 15 14 13 12 12 11 12 15 16 14 10 10 12 14 13 12 11 11 10 12 13 14 15 15 15 16 16 16 16 16 15 15 16 17 17 17 18 18 17 16 15 13 11 11 11 12 14 14 13 14 14 14
3 3 3 3 2 3 5 3 5 6 6 6 6 7 8 6 8 10 11 12 11 9 9 9 9 10 12 13 11 12 18 23 20 18 17 16 16 15 15 13 13 13 11 10 14 15 13 13 12 11 11 11 15 18 15 10 11 14 14 14 13 12 12 13 15 15 14 16 16 16 17 17 16 17 17 15 15 17 17 17 17 17 17 16 16 15 13 13 12 12 13 14 13 13 14 15 14
4 4 3 2 3 1 3 3 4 6 6 7 9 9 8 7 6 6 7 8 9 10 8 8 6 6 12 14 15 20 23 24 20 18 17 17 16 15 14 13 12 13 11 9 12 14 12 12 12 11 11 11 15 19 16 12 13 15 16 16 15 14 14 15 16 16 16 16 17 17 16 17 17 17 18 16 16 17 17 17 16 16 16 15 16 15 14 14 13 13 14 13 13 13 13 14 13
4 5 4 1 1 1 1 4 6 6 8 7 7 8 9 8 4 3 5 7 10 10 8 7 7 9 14 17 22 26 25 23 21 19 18 16 15 14 13 12 12 12 10 9 10 12 11 12 13 11 10 10 15 20 17 13 14 15 17 18 16 14 16 17 17 17 17 17 17 17 17 17 17 18 18 17 17 17 17 16 15 16 15 15 15 14 13 13 12 13 14 14 14 13 13 13 13
4 4 1 1 1 1 2 5 6 8 11 9 6 6 10 11 8 7 7 9 10 9 9 9 10 13 18 23 27 27 25 23 22 20 18 16 14 13 12 11 11 11 11 9 9 10 10 11 11 11 11 10 14 19 17 14 13 15 19 19 16 15 16 18 18 18 18 17 17 18 17 16 16 19 18 18 17 16 16 16 16 15 15 14 14 13 13 13 14 14 14 13 13 12 11 10 10
4 4 1 2 2 3 2 5 9 11 12 11 7 7 9 11 11 9 9 12 11 10 11 12 15 19 22 25 26 26 25 23 21 20 18 16 14 13 12 10 10 13 12 8 9 9 8 9 10 11 11 12 13 16 18 17 14 15 21 21 17 16 17 18 17 17 17 16 17 18 17 16 18 20 19 18 17 16 15 15 16 15 13 13 14 15 15 15 15 14 13 12 12 10 8 5 5
3 3 2 2 4 4 5 8 10 12 14 13 9 6 7 10 10 8 11 14 12 11 12 14 17 19 21 22 23 25 24 22 21 19 18 16 14 13 12 10 9 12 13 9 9 9 8 9 10 10 9 11 13 14 18 19 16 16 20 22 19 16 16 16 15 14 14 16 18 19 17 16 19 20 19 19 17 16 15 15 15 14 13 14 15 15 15 15 13 11 10 10 8 5 3 4 4
2 3 3 3 4 4 6 9 11 13 15 13 11 8 8 10 9 8 12 13 10 11 12 14 18 21 22 21 21 22 22 21 20 19 17 15 14 13 11 11 9 12 14 9 9 10 9 9 9 10 8 8 10 12 15 15 15 16 18 21 19 16 15 15 15 14 15 18 18 17 18 18 18 19 19 18 15 15 15 14 14 13 12 12 11 10 11 11 8 6 5 5 4 2 2 4 4
4 4 4 2 5 6 6 9 13 14 13 12 11 9 8 10 9 7 10 9 8 10 12 14 18 21 22 21 20 20 20 20 19 19 17 15 14 13 11 12 10 12 14 10 9 10 9 10 10 9 9 8 9 11 13 12 13 15 17 19 18 16 16 19 19 17 17 19 17 16 18 17 17 18 17 16 14 14 14 12 11 11 10 10 9 8 8 6 4 3 1 0 2 4 5 4 4
4 5 4 4 9 10 9 10 14 14 12 12 8 6 7 10 12 7 6 7 9 9 12 15 17 20 22 22 20 19 18 17 18 18 17 16 14 13 12 11 10 11 13 11 10 11 10 10 10 9 9 9 9 10 11 12 13 15 16 18 18 15 16 20 20 19 18 17 16 15 16 16 15 16 16 15 15 14 13 12 12 11 10 9 8 8 6 4 3 2 1 1 2 5 6 6 5
5 5 3 8 10 11 10 11 13 13 12 10 7 9 10 12 12 8 5 8 11 10 13 16 18 21 22 20 18 17 17 17 17 18 16 15 13 13 12 11 10 10 12 11 10 12 11 9 10 10 10 10 9 9 10 11 13 16 16 16 17 15 16 18 17 16 16 15 16 15 15 17 16 15 16 15 15 15 14 14 14 12 11 9 8 6 5 3 3 2 3 4 4 5 6 6 6
7 6 5 13 9 8 12 10 11 14 10 6 9 11 11 11 11 9 8 10 11 12 14 17 18 19 19 18 17 16 16 16 17 17 16 14 13 13 12 11 11 10 12 11 9 12 13 10 10 10 10 10 9 9 9 10 13 15 15 15 15 15 18 19 15 14 14 13 14 13 13 16 16 16 16 15 14 15 14 14 14 12 10 9 7 5 4 3 3 3 4 4 5 4 5 5 4
4 5 8 14 8 9 14 11 11 12 5 2 6 10 11 9 8 9 9 10 12 14 15 17 18 18 17 17 17 15 15 16 16 17 15 14 14 12 12 11 11 11 12 12 10 11 11 11 10 11 10 9 9 9 10 11 12 13 13 13 14 16 19 19 15 13 13 11 10 10 11 12 14 15 15 14 13 12 12 12 12 11 9 8 7 5 4 3 3 4 4 4 4 3 4 3 2
1 2 12 16 8 9 14 13 11 10 6 5 7 10 10 6 3 7 9 10 13 14 15 17 17 17 17 16 15 14 14 16 16 15 15 15 14 12 11 11 11 12 12 12 11 10 11 12 11 11 10 9 9 10 10 11 12 12 12 12 13 15 16 15 15 14 12 11 11 11 11 11 13 14 14 13 13 11 11 10 9 9 9 7 5 4 4 3 3 4 4 4 3 2 3 2 2
2 2 15 16 12 10 11 13 11 9 7 8 11 10 7 4 3 7 9 11 12 14 15 16 17 16 16 16 15 12 13 15 15 14 15 14 13 13 11 11 12 12 12 11 11 11 11 12 11 11 10 9 9 11 11 11 12 11 11 11 12 12 12 13 15 15 14 13 12 11 11 11 12 13 12 12 11 10 10 9 8 7 7 6 5 5 4 4 4 4 4 3 3 2 2 1 1
5 4 8 10 14 8 7 11 9 8 7 10 13 9 6 5 5 8 9 11 12 13 15 15 16 15 15 15 14 11 12 14 14 13 14 14 13 13 12 11 12 13 12 12 11 12 12 12 12 11 11 10 10 11 11 11 11 11 11 12 12 12 12 14 15 15 15 14 12 12 11 11 11 10 10 10 9 9 9 8 8 7 7 6 6 6 4 4 4 4 3 3 3 1 1 1 1
7 7 7 6 9 6 6 8 8 8 9 12 9 5 7 7 4 6 9 12 12 13 14 14 14 14 14 14 12 12 13 13 13 13 13 13 13 13 13 12 12 12 13 12 12 13 12 12 12 11 11 10 10 10 10 11 11 11 12 12 11 12 13 15 15 15 15 14 13 12 10 9 8 8 8 8 8 9 8 8 8 8 7 6 6 6 5 5 4 4 3 2 2 0 0 0 2
9 8 7 3 4 7 8 7 8 8 8 11 7 2 6 7 6 7 9 13 13 12 14 14 13 13 13 13 13 13 13 14 14 14 14 13 13 13 13 13 13 13 13 13 13 12 12 12 11 11 12 10 10 10 10 10 10 11 12 12 11 12 14 15 14 14 13 13 13 11 9 8 8 7 7 6 7 8 8 8 8 8 7 6 6 6 7 5 3 4 4 3 3 0 0 0 1
9 7 6 4 3 7 8 8 8 7 8 10 7 4 7 9 10 10 10 12 12 12 13 14 14 14 14 12 13 12 13 15 15 15 15 14 13 13 13 13 13 13 13 14 14 13 12 12 12 13 12 11 11 10 9 9 9 10 11 12 12 12 13 13 13 13 13 12 12 10 10 9 8 7 6 4 5 7 7 8 8 7 6 6 6 5 5 4 3 4 5 4 3 2 1 0 1
9 8 6 7 6 6 8 9 8 5 8 9 8 4 7 10 12 10 11 13 12 11 13 15 14 14 14 12 12 12 12 14 14 15 15 15 14 13 14 13 13 13 14 14 14 13 13 12 12 14 13 12 11 10 10 9 9 10 11 12 11 12 12 12 12 12 12 12 11 10 9 8 8 7 5 3 4 7 7 7 8 6 5 5 4 4 5 3 3 4 4 4 4 3 3 2 2
7 8 6 6 7 7 8 9 8 6 7 9 8 4 6 10 13 10 10 12 13 11 13 15 14 13 13 12 12 12 12 12 12 15 16 15 14 15 14 13 13 13 14 15 14 13 13 13 13 14 13 12 12 11 10 9 9 9 10 11 10 10 11 11 11 10 10 11 11 10 9 8 8 7 5 3 3 6 7 7 7 5 5 5 2 2 4 3 3 3 2 2 3 4 3 2 1
8 9 7 4 5 7 9 9 10 11 10 9 10 5 7 11 13 10 7 8 12 11 12 14 14 14 13 12 13 12 13 13 12 15 17 16 15 15 15 14 14 13 14 14 14 13 13 12 13 14 13 13 12 11 10 9 9 8 9 10 8 8 9 9 9 9 9 10 11 10 8 8 7 7 5 3 3 5 6 6 5 4 4 4 2 2 3 3 3 1 1 1 2 4 3 1 1
9 9 8 7 5 6 5 8 12 13 10 10 10 6 8 12 13 12 9 8 7 3 6 11 12 13 12 12 12 13 13 13 14 17 18 16 16 16 16 15 15 14 14 15 14 14 13 13 13 13 13 13 12 11 10 10 9 9 9 10 9 8 8 8 8 8 8 9 10 9 7 7 7 7 5 3 3 4 5 5 4 3 4 4 2 1 2 2 2 0 1 1 2 3 2 1 1
11 10 7 10 9 5 3 7 12 11 6 6 8 7 9 11 12 13 12 10 6 2 6 10 12 12 12 13 13 14 13 13 16 18 18 17 16 16 16 15 15 15 14 15 15 14 14 14 14 14 13 13 12 11 10 10 9 9 9 9 9 9 8 8 8 8 8 9 9 9 7 7 7 6 5 4 3 3 3 4 4 3 4 4 2 1 1 2 1 1 1 2 2 1 1 1 1
12 10 4 9 6 5 6 8 11 10 5 2 6 7 9 10 11 12 12 11 10 8 7 9 14 13 11 12 14 14 12 13 15 17 18 18 17 17 16 15 16 16 15 15 15 14 14 14 14 14 13 13 12 11 9 8 8 8 9 9 9 9 9 8 8 8 8 9 9 8 7 7 7 6 5 4 4 4 3 4 5 3 3 4 3 3 2 2 0 1 1 2 2 1 2 3 1
12 8 3 7 3 6 8 7 11 10 5 5 9 9 9 12 12 12 14 13 10 9 7 8 11 12 12 13 13 13 13 13 15 16 17 18 18 18 17 15 16 16 16 16 15 15 14 14 14 13 13 13 12 11 10 8 8 7 7 8 8 9 8 8 8 8 8 9 9 8 7 7 6 6 5 5 4 4 3 4 5 4 3 4 3 3 3 2 1 1 1 3 4 1 2 4 1
11 9 5 6 4 5 5 4 8 11 8 9 10 8 6 10 11 12 13 11 8 8 9 6 3 5 10 13 13 13 14 15 15 16 16 17 19 18 17 16 17 16 16 16 16 16 15 14 14 13 13 12 11 11 10 9 9 6 5 6 6 7 7 7 8 8 8 9 10 8 8 7 7 6 5 5 4 4 3 3 4 4 3 3 3 4 3 3 2 0 2 3 3 2 2 5 3
11 12 8 7 10 9 6 5 8 11 9 10 10 5 4 9 11 11 10 8 7 8 9 6 3 2 6 9 14 14 14 14 15 16 15 17 18 18 17 17 17 17 16 17 16 16 15 15 15 13 13 12 11 12 10 10 10 8 7 6 6 7 7 8 8 8 8 9 9 9 9 8 7 6 6 5 5 4 4 2 2 3 3 3 3 4 3 2 2 2 2 1 2 2 2 5 4
10 11 8 3 11 11 6 8 7 8 8 9 11 6 3 9 12 12 11 10 9 10 11 11 9 7 5 9 13 14 14 14 15 16 16 17 18 18 18 17 17 17 16 17 17 16 15 16 16 14 13 12 12 13 11 11 11 10 9 9 8 8 8 9 9 9 9 8 9 9 9 9 8 7 6 6 5 5 4 3 3 3 3 3 3 2 3 3 3 3 2 1 3 4 3 2 4
9 10 6 3 7 11 9 10 7 7 4 6 9 7 3 6 9 13 14 13 12 12 15 16 13 10 8 9 11 13 14 14 14 15 16 17 18 18 18 18 18 17 17 16 17 16 15 16 16 15 14 13 13 14 12 11 11 10 10 10 9 8 8 8 6 8 9 8 8 8 8 9 8 7 6 6 6 5 4 4 3 3 3 4 3 2 3 4 3 3 2 2 3 3 3 2 2
8 7 12 5 5 8 8 9 8 6 2 4 9 9 3 5 8 12 16 13 12 14 16 16 14 12 11 11 13 14 14 14 14 14 15 16 18 19 18 18 17 17 17 16 16 17 16 16 17 15 14 13 14 15 14 12 10 10 10 9 9 6 7 9 6 6 8 7 7 7 7 8 8 7 6 6 6 5 5 4 4 3 3 3 3 3 3 2 3 2 2 2 2 2 2 2 3
4 2 7 8 7 8 7 8 8 7 4 3 9 9 5 4 8 11 15 15 14 16 18 17 16 15 14 14 16 17 16 15 14 15 15 17 18 19 18 18 17 17 17 17 16 17 17 17 17 16 14 13 14 15 15 13 11 10 9 9 9 6 8 11 8 7 7 6 6 7 6 7 8 7 7 7 6 6 5 5 5 4 4 4 4 4 3 2 2 2 2 2 1 1 1 1 2
2 2 5 6 8 9 7 8 8 7 6 6 8 9 7 4 10 11 12 13 15 17 16 16 17 19 18 16 16 16 15 14 14 14 16 18 18 18 18 18 17 17 17 17 16 17 17 17 17 17 15 14 14 15 15 14 12 11 10 9 10 9 9 10 8 7 8 6 6 6 6 7 7 8 8 8 7 7 6 6 5 5 5 5 5 3 2 3 3 3 3 2 1 1 1 1 1
6 2 7 7 7 7 6 7 6 6 6 8 10 10 8 5 7 10 10 11 14 15 14 15 16 19 19 16 14 14 14 13 13 14 15 18 19 18 18 18 18 16 16 17 17 16 18 18 18 18 16 14 15 15 15 15 13 12 11 10 10 10 9 9 8 8 8 7 7 7 7 7 7 8 8 8 9 8 7 6 6 6 6 5 5 3 3 4 5 5 5 3 2 2 2 1 2
10 4 7 8 7 7 7 5 5 6 6 7 11 11 9 7 5 7 7 9 15 16 16 18 20 19 19 17 15 12 12 13 13 13 14 16 17 18 18 17 17 16 15 16 17 17 17 18 18 18 17 15 15 15 15 15 14 12 11 11 11 10 9 9 9 9 8 7 7 7 6 7 7 7 8 8 9 9 9 8 7 6 6 5 6 5 5 4 4 4 4 4 3 3 3 2 2
11 8 8 8 7 7 6 6 6 7 7 7 7 7 7 6 1 5 5 5 10 16 15 18 21 20 19 19 15 10 10 14 14 13 14 14 15 17 18 17 17 16 15 15 17 17 16 16 18 18 17 16 15 15 15 15 14 12 11 11 12 11 10 9 9 8 8 7 7 7 6 7 7 7 8 8 9 10 9 8 8 7 6 6 6 5 4 4 4 3 3 4 4 4 4 3 3
12 10 8 9 8 7 7 8 7 7 8 8 6 4 7 5 1 6 5 5 6 15 15 16 20 21 19 18 16 10 10 13 13 13 14 13 15 18 18 18 17 16 16 16 15 16 15 16 17 17 17 16 15 15 15 15 14 12 11 10 10 11 10 8 8 8 8 7 6 6 7 8 8 8 8 8 8 9 9 9 9 8 7 6 6 6 5 5 5 4 3 4 5 4 4 4 4
11 10 9 9 8 7 7 7 7 7 8 9 8 5 7 5 4 4 6 5 4 12 15 15 17 19 18 17 17 14 11 8 8 12 14 14 16 19 18 18 18 16 16 16 15 15 14 15 16 16 16 16 16 15 14 14 14 12 11 10 10 10 9 9 8 7 7 8 7 7 7 7 7 7 7 7 8 8 9 9 9 8 8 7 7 6 6 6 6 5 4 5 5 4 4 5 5
10 10 10 10 9 7 6 7 7 7 6 6 7 6 2 2 6 4 6 7 6 7 13 16 17 18 17 17 17 16 14 9 6 9 13 15 18 19 19 19 18 17 17 17 16 15 14 14 15 15 15 16 16 15 14 14 13 12 12 11 10 9 9 9 9 7 7 8 7 6 6 6 5 6 7 7 8 8 9 9 9 9 8 8 7 7 6 5 5 6 5 5 6 5 4 5 5
7 10 10 10 11 9 7 8 7 7 6 6 7 6 5 5 4 4 6 6 6 7 11 15 17 19 17 16 16 15 16 13 8 6 9 14 17 18 19 19 18 17 16 16 16 16 15 14 15 16 15 15 16 15 14 14 13 12 12 12 11 10 10 10 10 10 9 8 7 6 7 7 6 6 7 8 8 9 9 9 9 9 9 8 8 7 6 5 5 6 6 5 6 5 3 4 6
6 8 10 10 10 10 8 8 7 6 7 6 8 9 7 6 5 8 9 7 6 8 9 14 15 18 17 14 14 15 15 14 10 6 5 10 16 18 18 18 19 19 16 14 15 16 16 15 15 16 16 15 15 15 15 14 13 13 12 13 13 12 12 11 10 10 10 9 9 8 8 8 7 7 7 7 8 9 9 9 9 8 8 9 8 8 7 6 6 6 6 5 6 5 3 4 5
13 7 8 9 8 9 8 8 8 8 9 6 8 11 7 5 4 9 10 8 7 9 9 14 14 16 15 12 14 16 15 14 11 6 3 4 9 15 19 18 18 20 18 17 17 16 16 15 14 14 15 15 15 15 15 15 14 14 13 13 14 13 13 12 11 10 10 10 10 10 9 8 8 8 7 5 7 9 9 9 9 9 9 9 9 9 8 8 7 7 7 6 6 6 5 5 5
15 10 8 8 7 7 8 7 6 6 8 7 7 9 4 1 1 6 8 7 7 11 11 14 11 12 14 13 13 14 14 14 13 9 5 3 4 4 11 16 17 17 15 16 16 15 14 14 14 14 14 14 14 13 14 14 14 14 13 13 14 14 13 13 11 11 11 11 10 10 10 9 9 9 8 8 8 9 9 10 10 10 10 10 10 10 9 9 8 8 8 8 7 8 8 6 6
12 9 7 8 7 6 6 7 8 7 7 6 6 6 2 4 3 5 9 8 7 8 7 13 8 9 11 11 12 12 12 13 13 11 6 5 4 5 3 5 10 14 16 14 14 14 13 13 14 14 13 14 14 13 13 13 14 13 13 13 14 14 14 13 13 12 12 11 11 11 10 10 10 10 9 9 9 9 9 10 10 10 10 10 10 10 10 10 9 9 9 8 8 10 9 6 6
12 9 9 9 8 7 7 8 9 8 8 6 6 4 3 3 2 4 7 7 6 5 8 13 10 11 10 11 12 12 12 13 14 13 10 9 8 5 5 6 7 9 13 14 13 12 12 12 13 13 13 13 14 14 13 12 12 12 13 14 14 14 14 14 14 14 14 13 13 12 11 11 12 11 10 10 10 10 10 10 10 9 9 9 9 10 11 11 10 9 10 9 9 10 9 7 7
Wind_Direction
188 191 186 220 225 240 238 227 282 201 227 138 113 102 94 101 111 115 114 117 112 115 114 103 106 99 88 100 102 67 42 57 62 87 107 123 135 133 130 133 134 132 130 129 129 126 124 118 112 115 121 124 121 118 114 110 108 109 109 108 109 110 114 118 121 121 122 117 111 111 111 110 110 110 113 115 113 111 110 108 111 112 111 109 107 105 105 107 108 106 104 101 100 98 97 98 99
193 203 200 221 223 236 277 232 254 215 198 124 104 104 113 120 118 116 120 121 113 119 119 111 115 104 93 104 112 85 53 58 80 87 105 126 130 127 131 134 133 130 130 131 130 125 122 118 115 121 125 122 117 112 108 105 107 108 109 110 112 113 114 113 116 122 128 127 119 119 118 115 113 113 116 116 112 108 107 107 107 110 109 107 104 103 105 107 108 106 103 101 102 101 100 101 102
198 203 197 212 228 235 343 251 257 259 176 120 103 111 121 124 116 113 119 116 115 121 119 117 118 98 115 112 94 87 81 78 96 102 114 128 127 130 135 132 130 129 129 132 130 125 122 125 125 125 122 117 112 107 104 106 109 109 111 112 115 118 118 115 118 124 127 129 125 122 118 116 118 116 117 120 115 109 109 110 107 106 105 104 104 106 108 108 108 106 103 102 103 103 103 102 101
224 219 208 218 237 277 242 215 245 258 152 124 114 117 120 116 114 115 117 118 121 123 118 118 109 27 75 104 93 87 95 95 106 112 121 128 127 133 134 131 130 127 128 127 124 120 123 131 129 123 119 114 111 106 104 104 105 108 114 115 117 120 120 122 130 127 121 127 128 123 118 116 119 120 125 127 117 110 111 112 108 109 107 105 107 109 108 104 105 106 102 100 100 101 103 101 99
238 230 229 241 224 284 240 206 222 246 92 124 122 115 118 115 118 119 119 124 126 120 118 118 106 81 64 77 93 98 104 109 115 117 119 124 127 132 132 132 131 127 126 123 121 118 124 133 126 122 117 112 108 105 106 104 106 110 115 116 118 120 121 127 135 124 118 130 131 122 117 116 120 128 135 129 122 119 120 117 111 114 113 106 107 110 109 103 101 104 102 99 98 98 100 100 99
235 237 243 250 276 318 262 261 170 134 46 110 121 117 122 120 123 123 124 128 122 115 123 117 106 104 81 63 69 87 116 120 119 118 119 125 129 131 133 133 129 125 125 123 121 117 126 132 122 119 113 108 108 110 114 112 114 116 117 119 120 123 126 131 131 116 119 131 128 122 118 118 125 134 132 126 127 126 122 120 115 118 117 112 113 113 109 103 103 107 105 100 98 97 98 97 96
235 257 261 258 277 275 253 271 144 110 63 84 120 122 124 124 128 127 128 130 118 117 131 119 115 111 96 86 75 82 112 118 119 122 124 128 130 132 135 132 126 122 120 118 116 118 128 128 120 117 110 110 117 120 120 116 114 116 118 118 121 126 129 130 124 119 125 127 125 125 123 123 129 130 127 126 127 123 118 119 118 120 121 119 120 117 109 103 108 109 106 102 99 98 97 95 93
230 237 256 280 282 235 238 193 106 94 90 106 116 119 124 128 132 130 131 131 121 129 135 122 121 107 94 101 96 100 111 113 118 122 126 128 131 134 134 131 126 121 119 118 116 121 127 123 121 121 116 115 120 122 117 113 111 115 119 119 119 123 125 125 124 129 131 125 122 124 129 132 131 129 129 127 123 118 116 119 122 121 123 123 121 117 111 110 113 109 106 104 102 101 98 95 92
231 221 240 263 293 267 224 93 112 112 103 111 112 117 125 130 133 131 133 126 123 138 132 119 116 107 100 102 103 109 110 112 119 123 128 129 132 133 132 133 128 124 123 120 118 120 121 119 121 123 122 118 116 116 113 110 109 114 118 116 117 120 122 122 123 129 126 120 119 120 131 136 131 132 129 126 123 118 116 120 123 122 123 124 122 120 117 118 114 108 107 106 103 101 97 95 93
235 188 254 263 288 276 202 99 112 109 102 107 114 126 129 132 135 132 132 124 129 135 119 112 115 113 109 106 108 114 114 121 126 127 129 130 132 132 133 133 126 126 122 117 118 116 116 118 118 121 123 121 120 115 108 104 105 112 118 116 120 124 120 121 120 119 119 118 120 121 128 132 131 130 125 128 128 121 120 122 124 123 123 124 125 123 120 119 112 108 106 105 103 100 97 95 94
268 226 255 278 307 305 162 124 124 118 114 120 122 129 130 133 135 132 131 124 131 125 116 122 118 113 110 106 107 116 123 130 130 129 131 131 133 132 133 130 126 125 116 116 120 115 115 118 116 119 122 123 121 111 99 97 111 119 118 117 123 126 114 117 119 115 118 117 122 125 126 131 131 125 122 129 128 123 121 122 123 123 123 124 124 120 119 120 113 110 107 105 102 99 98 95 94
274 263 235 286 318 38 149 118 126 128 118 128 128 130 139 138 136 136 134 130 133 122 120 129 121 120 114 109 112 125 132 134 131 132 134 134 135 134 133 129 128 121 117 122 124 121 121 119 116 116 116 115 107 98 95 101 118 118 110 110 115 120 115 119 122 117 118 119 124 126 126 133 129 121 123 128 126 125 124 124 123 120 121 121 120 120 122 119 115 113 111 108 103 100 99 96 94
265 280 273 286 322 107 132 109 130 135 117 122 129 141 150 139 138 139 135 133 132 123 122 129 130 126 113 112 125 134 136 134 133 135 135 135 136 136 134 130 126 120 120 127 127 125 126 124 119 114 107 103 99 93 99 111 117 109 104 105 108 115 122 124 120 117 122 125 126 127 128 130 128 122 123 127 126 125 123 124 123 119 120 120 121 123 121 118 118 118 114 110 106 103 99 96 93
260 281 304 321 12 114 135 137 149 143 123 120 130 149 147 136 137 137 139 135 129 127 125 128 129 118 114 124 134 141 138 137 138 137 136 135 136 137 133 128 126 121 119 125 126 124 124 122 117 113 103 101 103 99 102 110 107 102 100 104 107 114 121 119 116 120 129 131 128 127 127 129 128 125 123 126 127 124 123 124 122 119 120 121 122 120 119 120 122 121 113 108 105 104 101 96 94
273 284 291 333 349 133 142 156 159 141 132 147 156 155 141 129 128 132 142 133 124 129 127 128 125 120 138 145 143 144 139 140 141 138 137 135 138 136 130 129 127 120 115 119 120 119 117 113 115 114 106 106 107 104 109 113 103 100 100 102 106 113 116 113 115 122 129 128 123 122 124 127 126 122 123 129 129 125 123 123 119 117 117 120 120 118 120 123 124 122 114 109 108 107 103 98 95
275 289 287 18 341 316 119 152 179 151 147 161 155 152 134 96 89 123 134 125 125 128 130 133 123 136 153 146 138 139 140 142 141 139 138 136 137 134 132 134 127 118 118 118 112 115 114 110 113 113 109 110 105 104 113 114 104 102 100 101 107 116 117 114 117 121 122 120 117 118 119 122 122 119 123 128 128 125 122 120 117 117 118 120 121 121 124 125 124 119 114 113 112 108 101 98 96
274 273 278 41 24 348 131 187 193 147 143 149 137 148 136 103 92 139 132 131 133 129 132 135 134 147 143 133 133 138 140 142 141 141 139 138 140 139 138 138 129 122 122 120 113 116 120 117 113 109 113 113 107 108 111 107 103 103 101 101 105 111 112 113 116 115 115 116 116 117 119 123 123 120 121 124 124 124 122 120 120 119 120 123 123 123 126 127 123 117 114 112 106 102 97 92 91
264 268 312 9 38 83 215 193 158 132 141 143 142 167 144 135 147 147 140 137 135 134 134 131 129 125 119 125 134 138 141 143 144 145 144 145 147 145 142 143 140 129 119 120 120 116 118 120 112 110 116 114 110 109 111 108 104 105 105 106 107 110 111 110 111 113 114 115 115 118 121 123 122 120 122 124 123 123 122 122 121 120 121 124 123 121 121 121 116 112 111 107 102 98 96 92 90
261 291 6 349 18 77 186 165 140 140 141 133 148 178 148 139 146 150 150 140 140 137 129 122 115 114 118 130 138 139 144 147 148 148 148 149 150 148 144 147 143 126 122 126 124 118 117 117 111 111 113 117 121 119 120 120 115 109 108 110 112 115 116 111 111 115 115 116 117 120 122 122 121 120 123 125 122 120 121 121 120 121 123 121 118 117 117 115 112 109 108 106 101 94 99 108 112
256 280 310 1 36 82 153 153 142 143 139 134 139 155 149 140 143 160 153 143 148 139 132 130 123 126 131 136 141 143 147 149 150 151 149 150 149 146 141 143 140 125 126 133 126 122 122 117 114 114 108 114 124 127 126 124 125 117 109 110 111 113 115 111 115 116 113 116 118 119 121 122 120 119 122 123 119 119 120 120 121 122 122 117 114 115 115 116 114 108 103 103 102 95 106 107 100
302 296 313 3 42 74 149 150 141 143 141 141 137 139 157 152 144 157 152 146 149 140 139 140 135 138 139 141 146 147 149 150 152 152 149 150 147 143 143 143 138 123 123 129 129 127 127 121 117 115 108 107 113 124 124 118 124 127 119 113 111 112 112 108 110 112 113 117 119 120 120 121 121 120 122 122 121 123 122 122 124 124 125 121 119 119 118 119 119 113 100 98 114 128 105 97 95
295 285 294 349 66 90 157 151 139 146 136 126 132 142 155 149 138 153 162 148 134 140 143 141 141 142 143 144 147 150 151 152 154 152 149 150 147 144 143 138 134 124 121 128 131 128 127 125 121 117 114 108 109 120 119 111 119 130 129 122 116 112 112 111 109 109 113 117 119 121 121 122 125 123 123 124 126 127 127 131 132 133 135 133 131 129 126 126 131 144 157 129 144 124 92 86 93
277 269 293 16 82 118 163 150 138 142 124 117 139 164 159 143 132 149 173 127 120 138 140 140 142 142 143 145 148 152 153 154 154 151 150 150 147 144 138 135 135 129 126 132 134 128 126 125 124 121 118 113 109 111 112 114 119 122 120 122 122 115 110 110 109 110 111 115 121 122 124 128 131 130 129 131 131 132 136 138 137 138 138 138 137 133 132 138 141 142 130 90 111 108 101 96 91
261 274 334 55 87 119 133 135 135 126 113 125 168 176 158 140 131 142 136 110 124 136 135 139 140 142 144 146 150 151 151 155 152 150 150 148 146 141 137 136 133 129 128 131 132 131 130 129 125 122 119 117 115 112 113 116 118 118 116 119 122 120 117 112 110 114 113 120 128 129 131 132 131 131 131 135 134 136 142 142 141 140 137 140 141 139 142 149 148 120 102 97 88 92 102 104 102
242 281 26 76 99 122 120 126 123 112 110 140 166 158 139 126 125 126 118 118 129 131 134 140 141 144 146 147 150 150 152 154 151 150 148 144 144 141 138 135 132 132 131 130 132 131 132 131 127 124 120 118 116 115 114 110 109 112 114 117 119 120 123 120 117 116 115 124 134 138 136 132 132 134 132 135 136 138 143 143 140 136 133 134 134 147 160 149 134 114 107 101 96 96 100 105 116
229 288 43 88 134 139 123 119 104 105 109 143 137 124 113 109 115 114 114 126 130 131 139 143 144 147 149 149 149 152 154 153 152 150 146 144 145 145 141 137 136 137 134 133 132 130 130 130 125 122 119 118 118 114 110 107 106 107 110 116 118 120 126 128 125 123 123 128 137 137 132 131 135 137 134 132 133 134 134 133 132 132 134 129 128 146 149 132 117 102 100 101 105 104 99 111 124
277 304 63 83 118 117 113 114 110 110 110 127 119 110 104 78 91 124 125 135 136 138 144 147 149 150 149 148 149 156 156 153 154 149 147 147 146 149 146 141 139 136 136 134 131 132 133 130 125 122 119 118 119 114 110 108 108 109 111 113 115 119 127 130 127 128 129 129 130 126 126 130 127 127 127 127 129 128 128 126 124 127 130 127 128 132 118 107 99 96 96 91 92 90 98 131 145
268 100 74 86 103 98 110 118 126 126 111 127 121 112 109 56 72 125 132 145 143 143 149 154 154 149 149 148 149 159 157 153 155 154 152 150 151 155 150 145 141 138 139 134 132 138 137 130 126 124 121 120 121 117 115 114 112 113 113 114 114 115 121 123 124 125 125 125 126 124 124 124 120 121 123 125 127 126 125 123 120 119 120 122 118 109 98 89 86 88 85 71 61 49 73 124 181
237 142 95 110 113 99 121 129 144 142 130 147 137 125 125 103 118 132 139 151 146 147 154 158 154 150 151 148 150 160 158 156 157 159 156 152 156 156 151 150 144 140 139 136 139 141 135 130 128 126 123 123 125 121 119 119 118 118 116 116 118 119 121 121 121 121 122 123 123 121 121 118 119 121 121 123 124 123 121 120 121 118 114 114 108 101 87 87 91 84 83 76 74 44 54 118 249
240 163 130 143 129 128 150 149 166 150 141 165 165 143 127 119 170 176 153 154 152 152 156 159 157 153 153 150 155 160 157 160 163 163 159 155 158 155 153 152 145 140 138 139 144 140 133 132 132 130 128 126 124 121 120 122 120 120 121 120 121 124 124 122 122 122 123 125 122 121 120 119 119 116 119 123 122 122 122 122 119 113 112 110 108 102 79 74 64 59 76 58 59 105 119 193 272
236 175 140 197 172 149 159 164 169 154 152 180 194 166 144 142 192 202 162 158 162 157 158 163 161 155 155 155 159 162 160 166 169 166 160 158 159 156 154 151 145 140 140 144 144 138 136 137 135 131 130 128 124 120 120 122 122 122 122 123 125 127 126 125 126 126 126 126 125 123 121 118 115 113 116 119 126 128 123 122 119 116 115 107 106 95 74 71 50 50 63 29 16 6 67 132 256
226 200 162 214 220 137 157 174 169 161 159 193 216 154 151 157 165 177 161 163 172 163 162 166 164 160 158 160 163 163 161 166 171 167 161 160 160 156 154 152 146 144 145 144 142 141 138 136 136 134 133 131 126 123 121 119 119 120 122 124 128 130 129 129 128 128 130 129 127 125 123 122 119 116 115 114 131 130 124 126 122 119 114 109 111 100 87 85 68 62 55 30 28 27 354 278 223
216 221 197 186 191 154 166 175 164 178 164 186 229 155 143 158 153 162 162 168 178 169 168 169 167 165 161 163 166 163 160 166 172 167 162 163 160 155 154 153 149 146 145 143 144 145 140 139 141 138 135 133 128 125 122 120 120 122 125 127 131 132 130 130 130 129 129 130 130 129 128 129 125 124 123 117 129 127 126 128 124 120 114 116 109 101 115 100 79 79 45 19 14 357 323 302 261
205 222 212 165 182 170 165 170 152 192 191 177 212 180 129 146 148 165 170 173 182 173 173 173 169 169 166 165 167 164 163 168 170 165 165 164 160 156 154 153 149 146 146 146 147 145 142 145 142 136 136 134 131 130 127 126 126 128 129 129 131 133 131 129 129 128 131 133 132 133 134 133 130 134 133 114 118 124 124 123 122 123 113 120 124 110 123 91 80 87 54 41 355 328 310 316 280
213 216 215 143 188 191 166 169 154 177 199 184 197 181 127 143 152 169 180 191 194 177 175 177 171 171 170 168 170 167 165 169 168 166 168 164 159 158 155 154 151 149 150 148 147 145 145 144 138 137 140 137 135 136 135 133 135 137 135 132 131 131 130 130 132 131 135 133 131 135 138 138 137 139 137 112 108 123 125 123 124 129 118 129 185 176 140 109 90 59 42 73 333 312 304 327 281
252 240 218 145 160 205 158 149 153 169 192 184 184 167 144 155 159 167 177 197 201 179 195 186 175 174 172 173 173 169 168 169 169 169 170 165 161 160 156 157 156 153 151 147 147 147 147 145 141 144 145 141 141 143 145 145 146 147 143 141 140 138 134 135 136 135 136 131 131 140 140 141 143 143 144 131 123 135 136 136 139 142 137 139 162 173 142 125 117 353 329 330 310 283 268 213 211
284 261 205 143 145 183 120 127 151 164 180 181 184 172 160 161 165 170 172 183 181 192 226 195 181 180 176 179 175 171 171 167 169 171 169 166 164 160 157 160 159 154 151 150 153 152 151 151 149 152 150 147 150 152 156 154 150 151 152 152 149 143 141 140 141 140 138 130 131 141 141 143 149 148 152 150 147 151 141 145 152 155 149 145 129 100 109 109 114 270 276 308 316 304 306 124 106
267 258 170 126 143 166 147 145 141 137 129 182 214 190 172 170 171 173 171 181 187 191 214 197 185 182 179 183 178 172 170 165 169 170 170 170 167 162 159 162 161 156 155 157 158 156 157 157 154 157 155 154 159 156 156 154 152 156 155 153 148 143 146 149 148 145 140 135 137 143 143 148 153 154 160 160 164 169 159 153 156 160 148 146 152 147 147 142 165 309 314 328 358 44 32 84 61
250 252 143 110 140 160 156 156 139 142 148 174 206 198 177 173 170 173 177 185 190 190 207 207 191 184 183 184 179 176 171 167 169 169 174 172 168 165 162 164 163 159 160 161 161 159 161 159 156 160 160 160 162 157 158 154 151 156 150 149 147 147 153 146 139 143 143 145 149 148 147 153 158 162 165 163 171 173 165 159 158 161 150 155 169 158 157 159 168 305 20 27 4 348 86 86 22
244 241 190 129 170 180 168 173 163 184 187 158 183 199 176 170 168 174 182 183 179 184 203 226 230 198 199 189 179 180 175 169 170 171 176 174 169 168 165 166 165 162 165 165 165 164 164 162 158 161 163 162 161 156 158 153 144 138 131 138 134 133 141 134 134 147 151 153 155 156 156 160 163 168 170 169 174 166 165 173 159 153 158 165 165 160 169 165 156 170 64 51 352 285 127 98 58
238 240 235 164 179 209 202 187 189 198 193 161 169 185 180 179 172 171 179 180 177 181 193 215 239 221 236 210 184 182 180 174 171 171 176 176 172 170 169 170 168 167 170 169 169 169 167 164 161 162 162 162 162 158 157 149 144 140 134 138 132 127 138 147 155 161 160 160 161 163 163 165 168 169 172 175 171 164 167 178 158 156 172 175 174 173 171 158 142 118 86 48 10 355 73 94 78
233 230 264 215 181 204 173 150 186 212 204 184 180 177 189 192 179 171 172 175 181 185 189 200 207 193 218 225 192 179 182 179 175 174 176 176 173 172 172 174 172 171 173 172 171 171 167 163 163 163 162 163 162 160 158 152 154 156 154 159 159 155 158 164 171 167 165 171 167 163 164 166 169 169 176 178 170 169 171 169 176 181 179 183 199 191 163 168 160 129 114 52 45 36 25 73 90
240 193 210 281 188 187 149 144 196 235 195 179 208 207 178 202 197 181 173 172 177 183 190 194 200 193 192 214 199 182 183 180 178 178 176 177 175 173 174 177 178 173 172 174 172 169 165 163 164 164 164 165 163 163 162 158 162 165 167 171 167 167 166 162 169 163 160 169 164 161 166 167 171 174 177 179 174 174 175 174 187 199 192 189 197 198 195 191 156 122 108 75 63 60 31 17 62
263 166 169 201 223 189 164 173 206 239 161 139 231 232 204 205 201 182 171 170 178 185 193 193 194 197 191 197 195 188 186 182 179 178 178 179 177 176 177 179 182 176 172 174 172 168 165 164 164 164 167 167 164 166 165 165 166 169 179 177 162 158 154 153 161 155 151 161 162 164 171 169 173 179 178 181 182 180 182 186 191 206 209 195 194 200 216 206 128 125 126 102 86 86 61 8 5
286 43 177 199 233 207 185 206 214 232 233 199 214 216 236 210 157 170 173 169 185 192 194 194 191 195 193 190 189 187 187 185 183 179 179 182 179 179 179 179 185 179 172 173 171 168 165 165 164 163 168 168 165 166 168 172 171 172 184 174 159 155 149 155 166 158 150 159 163 163 170 171 176 183 183 185 187 186 190 195 195 203 211 203 209 208 200 181 148 162 175 158 164 134 104 54 5
206 7 246 223 238 220 192 221 227 222 239 247 213 191 232 221 137 165 185 176 187 191 192 195 191 191 191 190 188 186 186 185 186 182 180 182 179 179 181 181 186 183 174 171 171 168 164 165 166 165 167 169 168 168 171 177 174 178 186 169 163 169 159 158 162 156 155 164 172 169 171 177 183 187 189 189 192 194 194 201 202 202 208 208 220 225 193 186 188 192 205 216 215 178 173 186 242
212 188 243 222 232 232 208 228 246 240 237 249 236 203 217 230 159 167 182 187 189 182 187 194 190 189 187 189 192 186 185 184 187 186 181 180 177 180 185 182 183 183 176 172 172 170 166 165 167 167 168 169 170 171 175 180 179 183 185 171 169 171 163 158 155 161 165 167 180 183 179 183 189 192 194 192 194 199 198 203 208 206 209 212 219 229 217 207 203 199 202 211 217 230 233 224 257
233 217 235 215 207 220 219 232 247 249 244 242 237 218 216 239 216 165 160 196 186 167 180 187 184 188 184 186 192 187 186 185 187 186 179 178 177 179 184 181 179 180 177 175 176 174 168 165 168 169 170 171 172 174 178 182 185 187 184 176 174 173 172 170 165 171 175 173 183 183 177 186 192 194 195 195 197 198 197 202 210 212 213 215 217 221 226 226 220 202 191 201 212 226 244 238 254
229 217 233 221 203 205 216 228 227 234 244 250 242 222 221 239 243 105 109 226 183 153 174 185 178 184 183 182 188 191 193 186 185 186 177 178 179 179 182 179 177 177 176 179 180 177 170 166 168 171 173 174 175 178 181 184 188 191 188 181 175 172 181 181 169 172 177 179 185 179 180 190 193 197 196 196 200 197 196 201 206 211 214 218 221 223 230 239 240 225 196 205 214 215 234 241 243
219 212 227 226 211 205 218 224 223 233 241 242 234 229 240 235 100 106 135 235 181 144 167 184 174 177 180 178 182 194 201 189 185 183 178 179 178 179 181 177 177 179 178 180 182 178 174 170 170 174 175 176 179 181 183 187 190 192 192 189 181 177 182 184 177 182 182 183 187 186 190 191 189 198 198 196 199 196 196 200 203 208 211 214 221 222 226 226 229 238 228 221 222 219 228 239 244
214 219 228 237 232 217 227 230 220 229 237 226 203 212 257 230 154 175 188 198 150 139 162 177 170 171 174 173 178 190 203 202 195 186 180 179 177 178 180 178 179 181 180 182 182 178 176 173 172 177 178 178 181 184 186 190 192 193 194 193 191 188 186 187 188 192 186 184 192 189 191 200 193 186 187 192 195 194 194 195 198 205 206 209 216 218 221 222 223 228 234 236 232 222 228 241 250
198 216 227 235 237 225 237 255 259 265 260 235 209 204 246 117 129 188 210 182 162 154 156 159 163 165 170 173 174 186 197 199 207 194 183 180 178 178 181 181 181 182 184 184 181 180 179 175 174 178 181 181 183 186 188 193 195 195 196 195 197 193 190 192 191 193 192 191 197 188 185 209 205 171 173 190 193 192 194 194 197 200 201 206 210 213 220 222 222 225 229 237 237 227 222 238 253
184 201 223 231 237 235 238 247 262 285 270 239 233 217 149 124 135 177 202 174 172 190 155 145 157 161 167 174 171 182 190 187 197 202 188 183 179 179 182 185 183 181 189 188 180 181 182 179 178 179 183 185 185 186 188 193 196 198 199 198 200 198 197 200 195 193 197 191 193 196 190 199 205 191 191 194 190 193 196 196 201 199 196 202 204 206 215 218 219 228 228 231 238 239 227 236 252
222 197 208 219 235 236 237 241 231 244 256 232 231 231 189 180 189 168 181 171 173 209 161 135 152 158 162 174 174 179 181 178 185 189 192 188 182 182 183 187 185 180 189 196 184 183 184 184 185 184 186 189 188 189 190 192 194 198 201 200 203 204 204 207 203 198 199 193 192 203 201 196 200 203 205 196 185 191 196 197 202 201 193 197 200 197 202 209 217 226 230 233 238 244 245 241 253
250 249 207 199 221 223 218 240 233 224 244 236 226 234 216 211 190 155 176 174 171 212 169 136 154 160 161 175 177 177 173 171 174 164 158 174 175 182 183 188 188 176 183 197 190 183 184 186 188 189 191 194 194 193 191 192 195 198 202 202 204 208 208 210 208 202 202 201 198 200 202 200 199 199 202 200 190 191 196 197 200 203 197 195 197 196 196 201 210 217 223 230 229 230 240 247 251
240 259 230 203 222 233 215 225 239 236 245 240 232 234 203 25 5 146 175 175 174 210 178 141 156 164 160 171 174 173 170 170 171 161 146 111 85 147 178 190 189 175 185 198 186 180 185 185 188 192 194 196 199 197 191 194 199 200 201 202 203 207 209 211 211 207 207 209 206 203 203 200 199 199 197 200 205 201 197 198 202 204 202 199 198 199 197 199 209 213 216 229 229 218 223 239 247
217 233 227 212 215 234 229 222 225 233 242 237 237 235 123 46 7 139 164 169 177 208 151 118 152 178 159 164 168 167 170 171 169 163 152 131 90 52 77 169 175 177 196 199 179 180 187 187 188 190 194 197 198 200 197 198 202 201 202 204 204 206 208 211 212 211 211 211 208 209 208 199 196 203 200 197 205 206 201 203 207 207 205 203 199 199 200 201 209 213 212 227 234 218 214 226 235
199 209 219 222 214 215 224 221 218 227 243 243 241 237 102 68 17 111 143 153 156 176 120 114 156 179 163 165 166 165 172 173 170 169 165 160 160 132 80 75 101 147 187 189 174 175 185 194 195 190 194 198 199 203 202 199 202 202 204 207 207 206 208 211 214 213 213 213 210 210 211 206 200 202 201 199 203 204 203 206 208 209 210 204 197 202 206 205 207 212 212 219 222 216 219 229 230